This is the latest recevied weather packets stored in our database for station/object HB9FHL-13. If no packets are shown the sender has not sent any weather packets the latest 10 day(s).
| Time | Temp. | Humidity | Pressure | Rain* | Wind** | Luminosity | Snow |
|---|---|---|---|---|---|---|---|
| 1777363666 | 15° C | - | 1014.5 hPa | 0 mm | - | - | - |
| 1777363366 | 14.44° C | - | 1016.7 hPa | 0 mm | - | - | - |
| 1777363065 | 14.44° C | - | 1015.4 hPa | 0 mm | - | - | - |
| 1777362765 | 13.89° C | - | 1015.3 hPa | 0 mm | - | - | - |
| 1777362464 | 14.44° C | - | 1012.6 hPa | 0 mm | - | - | - |
| 1777362164 | 15.56° C | - | 1015 hPa | 0 mm | - | - | - |
| 1777361863 | 16.11° C | - | 1013.6 hPa | 0 mm | - | - | - |
| 1777361562 | 14.44° C | - | 1012.2 hPa | 0 mm | - | - | - |
| 1777361260 | 14.44° C | - | 1015.5 hPa | 0 mm | - | - | - |
| 1777360960 | 13.89° C | - | 1018.2 hPa | 0 mm | - | - | - |
| 1777360661 | 15° C | - | 1016.2 hPa | 0 mm | - | - | - |
| 1777360359 | 14.44° C | - | 1010.6 hPa | 0 mm | - | - | - |
| 1777360058 | 14.44° C | - | 1017.7 hPa | 0 mm | - | - | - |
| 1777359758 | 14.44° C | - | 1014.2 hPa | 0 mm | - | - | - |
| 1777359458 | 15° C | - | 1014.3 hPa | 0 mm | - | - | - |
| 1777359191 | 13.89° C | - | 1011 hPa | 0 mm | - | - | - |
| 1777359157 | 13.89° C | - | 1011 hPa | 0 mm | - | - | - |
| 1777358856 | 15° C | - | 1017.5 hPa | 0 mm | - | - | - |
| 1777358556 | 14.44° C | - | 1013.7 hPa | 0 mm | - | - | - |
| 1777358254 | 14.44° C | - | 1015.3 hPa | 0 mm | - | - | - |
| 1777357953 | 13.89° C | - | 1013.8 hPa | 0 mm | - | - | - |
| 1777357653 | 13.89° C | - | 1018.2 hPa | 0 mm | - | - | - |
| 1777357353 | 14.44° C | - | 1018.5 hPa | 0 mm | - | - | - |
| 1777357052 | 13.89° C | - | 1014.5 hPa | 0 mm | - | - | - |
| 1777356752 | 13.89° C | - | 1015.9 hPa | 0 mm | - | - | - |
* Rain since midnight (hover to see other rain measurements)
** Current wind speed in m/s (hover to see current wind gust speed)